Location: Newark
(52.0167°N, 6.1333°E)
Time: 15:05:04
(UTC+00:00)

N. Korean satellite - Pass Details

Date: 24 September 2019
Orbit: 455 x 508 km, 97.2° (Epoch: 16 October)

Event Time Altitude Azimuth Distance (km) Brightness Sun altitude
Rises 04:48:49 0° 25° (NNE) 2,487 10.7 -6.2°
Reaches altitude 10° 04:51:14 10° 42° (NE) 1,606 10.0 -5.9°
Maximum altitude 04:53:53 21° 93° (E) 1,101 9.7 -5.5°
Drops below altitude 10° 04:56:31 10° 143° (SE) 1,599 9.6 -5.1°
Sets 04:58:56 0° 161° (SSE) 2,472 10.3 -4.7°
